Lid_Strength_Index
1 1 1 2 1 1 1 2 0 1 1 2 2 2 2 2 2 1 2 2 2 2
1 1 1 2 1 2 2 2 1 1 1 1 1 2 2 2 2 1 2 2 3 2
1 1 1 2 1 1 2 2 2 1 0 1 1 2 2 2 2 2 2 2 2 3
1 1 1 1 1 2 1 2 2 1 1 1 1 2 2 2 1 2 1 2 2 2
1 1 1 1 1 1 2 1 2 2 1 1 1 2 2 2 1 2 2 2 2 2
2 2 2 1 1 1 2 2 2 2 1 1 1 2 2 1 2 2 1 2 2 2
2 2 1 1 1 1 1 2 2 2 1 1 1 2 1 1 2 2 2 1 2 1
2 1 1 1 1 1 1 1 2 2 2 2 1 1 2 2 2 2 2 2 1 1
2 2 2 2 2 1 1 1 2 2 2 3 2 3 3 2 2 2 2 2 2 1
2 2 2 2 2 2 2 1 3 3 3 3 2 5 5 3 2 2 2 2 2 1
2 2 2 2 2 2 2 2 2 3 3 3 3 7 7 5 3 3 2 2 2 1
2 2 2 2 2 2 2 2 2 3 3 3 3 8 8 6 3 3 3 2 2 2
2 2 2 2 2 2 2 2 2 3 3 5 4 9 9 7 3 3 2 3 2 4
2 2 2 2 2 2 2 3 3 4 4 4 5 6 8 8 3 2 2 2 2 2